TimePDT,TemperatureF,Dew PointF,Humidity,Sea Level PressureIn,VisibilityMPH,Wind Direction,Wind SpeedMPH,Gust SpeedMPH,PrecipitationIn,Events,Conditions,WindDirDegrees,DateUTC
12:52 AM,46.0,44.1,93,29.83,-9999.0,East,6.9,-,0.02,,Unknown,90,2013-05-28 07:52:00
1:52 AM,46.0,44.1,93,29.82,-9999.0,East,4.6,-,0.02,,Unknown,90,2013-05-28 08:52:00
2:52 AM,46.0,43.0,89,29.82,-9999.0,Calm,Calm,-,N/A,,Unknown,0,2013-05-28 09:52:00
3:52 AM,45.0,43.0,93,29.83,-9999.0,SSW,5.8,-,0.03,,Unknown,210,2013-05-28 10:52:00
4:52 AM,44.1,42.1,93,29.82,-9999.0,SSW,6.9,-,0.01,,Unknown,210,2013-05-28 11:52:00
5:52 AM,42.1,39.9,92,29.82,-9999.0,SSW,6.9,-,N/A,,Unknown,210,2013-05-28 12:52:00
6:52 AM,45.0,42.1,90,29.83,-9999.0,SW,8.1,-,N/A,,Unknown,220,2013-05-28 13:52:00
7:52 AM,46.9,41.0,80,29.85,-9999.0,SSW,13.8,-,N/A,,Unknown,210,2013-05-28 14:52:00
8:52 AM,50.0,39.9,68,29.86,-9999.0,West,6.9,-,N/A,,Unknown,270,2013-05-28 15:52:00
9:52 AM,52.0,37.0,57,29.87,-9999.0,WNW,10.4,-,N/A,,Unknown,300,2013-05-28 16:52:00
10:52 AM,57.0,37.0,47,29.86,-9999.0,West,13.8,20.7,N/A,,Unknown,280,2013-05-28 17:52:00
11:52 AM,57.0,35.1,44,29.86,-9999.0,NW,9.2,20.7,N/A,,Unknown,320,2013-05-28 18:52:00
12:52 PM,59.0,36.0,42,29.86,-9999.0,West,15.0,26.5,N/A,,Unknown,260,2013-05-28 19:52:00
1:52 PM,59.0,35.1,41,29.87,-9999.0,SW,11.5,32.2,N/A,,Unknown,230,2013-05-28 20:52:00
2:52 PM,61.0,32.0,34,29.86,-9999.0,WNW,10.4,-,N/A,,Unknown,290,2013-05-28 21:52:00
3:52 PM,60.1,30.9,33,29.85,-9999.0,Variable,3.5,-,N/A,,Unknown,0,2013-05-28 22:52:00
4:52 PM,61.0,30.9,32,29.84,-9999.0,West,5.8,-,N/A,,Unknown,270,2013-05-28 23:52:00
5:52 PM,63.0,28.9,28,29.83,-9999.0,Variable,3.5,-,N/A,,Unknown,0,2013-05-29 00:52:00
6:52 PM,62.1,28.9,29,29.81,-9999.0,West,5.8,-,N/A,,Unknown,280,2013-05-29 01:52:00
7:52 PM,61.0,30.0,31,29.82,-9999.0,West,6.9,17.3,N/A,,Unknown,270,2013-05-29 02:52:00
8:52 PM,55.0,30.0,38,29.82,-9999.0,WNW,3.5,-,N/A,,Unknown,290,2013-05-29 03:52:00
9:52 PM,46.9,33.1,59,29.84,-9999.0,South,9.2,-,N/A,,Unknown,170,2013-05-29 04:52:00
10:52 PM,48.9,34.0,56,29.81,-9999.0,SE,8.1,-,N/A,,Unknown,130,2013-05-29 05:52:00
11:52 PM,48.0,34.0,58,29.78,-9999.0,SE,11.5,-,N/A,,Unknown,130,2013-05-29 06:52:00